This is the latest recevied weather packets stored in our database for station/object VK3VJP-13. If no packets are shown the sender has not sent any weather packets the latest 10 day(s).
| Time | Temp. | Humidity | Pressure | Rain* | Wind** | Luminosity | Snow |
|---|---|---|---|---|---|---|---|
| 1778065981 | 5.56° C | 92% | 1018.2 hPa | 0 mm | - | - | - |
| 1778065681 | 5.56° C | 93% | 1018.2 hPa | 0 mm | - | - | - |
| 1778065381 | 5.56° C | 92% | 1018.1 hPa | 0.25 mm | - | - | - |
| 1778065081 | 5.56° C | 92% | 1018.1 hPa | 0.25 mm | - | - | - |
| 1778064781 | 5.56° C | 93% | 1018.2 hPa | 0.25 mm | - | - | - |
| 1778064481 | 6.11° C | 93% | 1018 hPa | 0.51 mm | - | - | - |
| 1778064181 | 6.11° C | 93% | 1018.2 hPa | 0.51 mm | - | - | - |
| 1778063881 | 6.11° C | 93% | 1018 hPa | 0.51 mm | - | - | - |
| 1778063581 | 6.11° C | 93% | 1018.1 hPa | 0.51 mm | - | - | - |
| 1778063281 | 6.11° C | 93% | 1018.1 hPa | 0.76 mm | - | - | - |
| 1778062981 | 6.11° C | 93% | 1018.2 hPa | 0.76 mm | - | - | - |
| 1778062681 | 6.11° C | 93% | 1018.1 hPa | 0.76 mm | - | - | - |
| 1778062381 | 6.67° C | 93% | 1018.1 hPa | 0.76 mm | - | - | - |
| 1778062081 | 6.67° C | 93% | 1018 hPa | 0.76 mm | - | - | - |
| 1778061781 | 6.67° C | 92% | 1017.9 hPa | 0.51 mm | - | - | - |
| 1778061481 | 7.22° C | 92% | 1017.7 hPa | 0.51 mm | - | - | - |
| 1778061181 | 7.22° C | 92% | 1017.5 hPa | 0.51 mm | - | - | - |
| 1778060881 | 7.78° C | 93% | 1017.3 hPa | 0.25 mm | - | - | - |
| 1778060581 | 7.78° C | 93% | 1017.2 hPa | 0.51 mm | - | - | - |
| 1778060281 | 7.78° C | 93% | 1017 hPa | 0.76 mm | - | - | - |
| 1778059981 | 7.78° C | 93% | 1017.1 hPa | 1.02 mm | - | - | - |
| 1778059681 | 7.78° C | 93% | 1017 hPa | 0.76 mm | - | - | - |
| 1778059381 | 7.78° C | 93% | 1016.9 hPa | 1.27 mm | - | - | - |
| 1778059081 | 8.33° C | 93% | 1016.9 hPa | 3.05 mm | - | - | - |
| 1778058781 | 8.33° C | 93% | 1016.7 hPa | 3.05 mm | - | - | - |
* Rain latest hour (hover to see other rain measurements)
** Current wind speed in m/s (hover to see current wind gust speed)